Weather History for St. Joseph, MO

Change the Weather History Date:

Wednesday, September 24, 2014

  Actual Average Record
Temperature  
Mean Temperature 67 °F 63 °F  
Max Temperature 74 °F 76 °F 90 °F (1958)
Min Temperature 59 °F 50 °F 30 °F (1989)
Degree Days  
Heating Degree Days 0 4  
Month to date heating degree days 78 44  
Since 1 July heating degree days 84 49  
Cooling Degree Days 2 2  
Month to date cooling degree days 91 108  
Year to date cooling degree days 1140 1185  
Growing Degree Days 16 (Base 50)    
Moisture  
Dew Point 55 °F    
Average Humidity 67    
Maximum Humidity 84    
Minimum Humidity 49    
Precipitation  
Precipitation 0.01 in 0.09 in 2.01 in (1900)
Month to date precipitation 1.71 2.89  
Year to date precipitation 24.26 29.19  
Sea Level Pressure  
Sea Level Pressure 30.17 in    
Wind  
Wind Speed 8 mph (SSE)    
Max Wind Speed 20 mph    
Max Gust Speed 24 mph    
Visibility 10 miles    
Events Rain    
T = Trace of Precipitation, MM = Missing Value Source: NWS Daily Summary

Daily Weather History Graph

Daily Weather History Graph

Search for Another Location

Airport:

Trip Planner

Search our weather history database for the weather conditions in past years. The results will help you decide how hot, cold, wet, or windy it might be!

Date:

Astronomy

Sep. 24, 2014 Rise Set
Actual Time 7:09 AM CDT 7:13 PM CDT
Civil Twilight 6:42 AM CDT 7:40 PM CDT
Nautical Twilight 6:10 AM CDT 8:11 PM CDT
Astronomical Twilight 5:38 AM CDT 8:43 PM CDT
Moon 7:30 AM CDT (9/24) 7:24 PM CDT (9/24)
Length of Visible Light 12h 58m
Length of Day
12h 04m
New Moon, 0% of the Moon is Illuminated
Sep 24
New Moon
Oct 1
First Quarter
Oct 8
Full
Oct 15
Last Quarter
Oct 23
New

Hourly Weather History & Observations

Time (CDT) Temp. Dew Point Humidity Pressure Visibility Wind Dir Wind Speed Gust Speed Precip Events Conditions
12:53 AM 62.1 °F 55.0 °F 78% 30.13 in 10.0 mi SSE 9.2 mph - 0.00 in   Mostly Cloudy
1:53 AM 63.0 °F 54.0 °F 72% 30.13 in 10.0 mi South 9.2 mph - N/A   Overcast
2:53 AM 63.0 °F 53.1 °F 70% 30.14 in 10.0 mi South 5.8 mph - N/A   Overcast
3:53 AM 63.0 °F 52.0 °F 67% 30.14 in 10.0 mi SSE 9.2 mph - N/A   Overcast
4:53 AM 61.0 °F 53.1 °F 75% 30.14 in 10.0 mi SE 8.1 mph - N/A   Overcast
5:53 AM 59.0 °F 53.1 °F 81% 30.16 in 10.0 mi SSE 6.9 mph - N/A   Partly Cloudy
6:53 AM 60.1 °F 53.1 °F 78% 30.17 in 10.0 mi SE 6.9 mph - N/A   Overcast
7:53 AM 61.0 °F 52.0 °F 72% 30.18 in 10.0 mi SSE 10.4 mph - N/A   Overcast
8:53 AM 61.0 °F 54.0 °F 78% 30.19 in 10.0 mi SSE 11.5 mph - N/A   Overcast
9:53 AM 61.0 °F 55.9 °F 83% 30.22 in 10.0 mi SSE 10.4 mph - 0.00 in Rain Light Rain
10:53 AM 62.1 °F 57.9 °F 86% 30.23 in 10.0 mi South 8.1 mph - 0.01 in Rain Light Rain
11:53 AM 63.0 °F 57.0 °F 81% 30.22 in 10.0 mi SSE 10.4 mph - 0.00 in   Partly Cloudy
12:53 PM 66.9 °F 57.9 °F 73% 30.20 in 10.0 mi SSE 15.0 mph - N/A   Mostly Cloudy
1:53 PM 70.0 °F 55.9 °F 61% 30.17 in 10.0 mi South 13.8 mph - N/A   Clear
2:53 PM 73.9 °F 57.0 °F 55% 30.15 in 10.0 mi South 11.5 mph - N/A   Clear
3:53 PM 72.0 °F 55.9 °F 57% 30.15 in 10.0 mi South 12.7 mph - N/A   Clear
4:53 PM 73.0 °F 54.0 °F 51% 30.13 in 10.0 mi SSE 12.7 mph - N/A   Scattered Clouds
5:53 PM 71.1 °F 51.1 °F 49% 30.14 in 10.0 mi SSE 12.7 mph - N/A   Mostly Cloudy
6:53 PM 68.0 °F 52.0 °F 56% 30.15 in 10.0 mi SE 8.1 mph - N/A   Overcast
7:53 PM 66.0 °F 54.0 °F 65% 30.15 in 10.0 mi SE 8.1 mph - N/A   Overcast
8:53 PM 64.9 °F 55.9 °F 73% 30.17 in 10.0 mi SE 5.8 mph - N/A   Overcast
9:53 PM 64.0 °F 57.0 °F 78% 30.18 in 10.0 mi Calm Calm - N/A   Overcast
10:53 PM 63.0 °F 57.0 °F 81% 30.19 in 10.0 mi Calm Calm - N/A   Overcast
11:53 PM 63.0 °F 57.9 °F 84% 30.18 in 10.0 mi Calm Calm - N/A   Overcast